Location: Passo di Treia
(43.2833°N, 13.3333°E)
Time: 09:03:01
(UTC+00:00)

Shenzhou-11 Module - Pass Details

Date: 09 December 2019
Orbit: 303 x 316 km, 42.8° (Epoch: 19 January)

Event Time Altitude Azimuth Distance (km) Brightness Sun altitude
Rises 17:00:28 0° 274° (W) 2,066 7.1 -15.7°
Reaches altitude 10° 17:02:28 10° 273° (W) 1,230 5.8 -16.0°
Maximum altitude 17:05:13 74° 188° (S) 336 1.7 -16.5°
Enters shadow 17:05:37 58° 125° (SE) 377 1.7 -16.6°
